,,,PA_Meas_PMT16A,,PR_Meas_QMR101_102,,RH_Meas_QMH101,,SR_Meas_QMS101,,TA_Meas_QMH101,,GenWind,,GenWind,
date,time,status,PA,status,PR,status,RH,status,SR,status,TA,status,DirAvg,status,SpdAvg,
2010-04-13, 00:00:04,VALID,1004.67,VALID,0,VALID,83.5744,VALID,0,VALID,26.5076,VALID,11,VALID,1.34023,
2010-04-13, 00:01:04,VALID,1004.68,VALID,0,VALID,83.2845,VALID,0,VALID,26.5466,VALID,31,VALID,2.03828,
2010-04-13, 00:02:04,VALID,1004.65,VALID,0,VALID,82.9336,VALID,0,VALID,26.605,VALID,10,VALID,1.35391,
2010-04-13, 00:03:04,VALID,1004.66,VALID,0,VALID,83.1014,VALID,0,VALID,26.5855,VALID,43,VALID,1.36523,
2010-04-13, 00:04:04,VALID,1004.66,VALID,0,VALID,83.2311,VALID,0,VALID,26.5661,VALID,1,VALID,1.09258,
2010-04-13, 00:05:04,VALID,1004.65,VALID,0,VALID,83.315,VALID,0,VALID,26.5271,VALID,1,VALID,1.61367,
2010-04-13, 00:06:04,VALID,1004.66,VALID,0,VALID,83.4142,VALID,0,VALID,26.5076,VALID,29,VALID,1.79258,
2010-04-13, 00:07:04,VALID,1004.66,VALID,0,VALID,83.5515,VALID,0,VALID,26.5076,VALID,11,VALID,1.26445,
2010-04-13, 00:08:04,VALID,1004.63,VALID,0,VALID,83.4447,VALID,0,VALID,26.4881,VALID,7,VALID,2.09648,
2010-04-13, 00:09:04,VALID,1004.61,VALID,0,VALID,83.3837,VALID,0,VALID,26.5076,VALID,30,VALID,1.82852,
2010-04-13, 00:10:04,VALID,1004.58,VALID,0,VALID,83.376,VALID,0,VALID,26.5271,VALID,21,VALID,1.62617,
2010-04-13, 00:11:04,VALID,1004.59,VALID,0,VALID,83.4371,VALID,0,VALID,26.5076,VALID,23,VALID,2.38789,
2010-04-13, 00:12:04,VALID,1004.54,VALID,0,VALID,83.6202,VALID,0,VALID,26.4687,VALID,27,VALID,1.99805,
2010-04-13, 00:13:04,VALID,1004.51,VALID,0,VALID,83.6202,VALID,0,VALID,26.4492,VALID,7,VALID,2.87266,
2010-04-13, 00:14:04,VALID,1004.47,VALID,0,VALID,83.4752,VALID,0.100563,VALID,26.4667,VALID,360,VALID,2.50625,
2010-04-13, 00:15:04,VALID,1004.45,VALID,0,VALID,83.7804,VALID,0,VALID,26.4667,VALID,24,VALID,1.5125,
2010-04-13, 00:16:04,VALID,1004.39,VALID,0,VALID,83.7956,VALID,0,VALID,26.4082,VALID,14,VALID,2.0543,
2010-04-13, 00:17:05,VALID,1004.36,VALID,0,VALID,83.7727,VALID,0.100563,VALID,26.4082,VALID,19,VALID,1.78789,
2010-04-13, 00:18:05,VALID,1004.36,VALID,0,VALID,83.6964,VALID,0.100563,VALID,26.4277,VALID,28,VALID,2.28398,
2010-04-13, 00:19:05,VALID,1004.35,VALID,0,VALID,83.7193,VALID,0,VALID,26.4297,VALID,17,VALID,1.40156,
2010-04-13, 00:20:05,VALID,1004.34,VALID,0,VALID,83.4523,VALID,0,VALID,26.4297,VALID,350,VALID,2.8832,
2010-04-13, 00:21:05,VALID,1004.35,VALID,0,VALID,83.3608,VALID,0,VALID,26.4881,VALID,33,VALID,2.28477,
2010-04-13, 00:22:05,VALID,1004.34,VALID,0,VALID,83.3684,VALID,0.100563,VALID,26.5076,VALID,9,VALID,1.98359,
2010-04-13, 00:23:05,VALID,1004.37,VALID,0,VALID,83.2463,VALID,0,VALID,26.4687,VALID,3,VALID,2.29414,
2010-04-13, 00:24:05,VALID,1004.35,VALID,0,VALID,83.109,VALID,0,VALID,26.5291,VALID,18,VALID,1.71367,
2010-04-13, 00:25:05,VALID,1004.34,VALID,0,VALID,82.8344,VALID,0,VALID,26.5076,VALID,24,VALID,2.30938,
2010-04-13, 00:26:05,VALID,1004.34,VALID,0,VALID,82.3843,VALID,0,VALID,26.605,VALID,25,VALID,1.32656,
2010-04-13, 00:27:05,VALID,1004.33,VALID,0,VALID,82.3995,VALID,0,VALID,26.5855,VALID,20,VALID,2.88203,
2010-04-13, 00:28:05,VALID,1004.35,VALID,0,VALID,82.2775,VALID,0,VALID,26.6245,VALID,29,VALID,1.2625,
2010-04-13, 00:29:05,VALID,1004.3,VALID,0,VALID,82.041,VALID,0,VALID,26.644,VALID,20,VALID,3.50312,
2010-04-13, 00:30:05,VALID,1004.3,VALID,0,VALID,81.7663,VALID,0,VALID,26.7024,VALID,40,VALID,1.875,
2010-04-13, 00:31:05,VALID,1004.3,VALID,0,VALID,81.8579,VALID,0,VALID,26.7024,VALID,23,VALID,0.597266,
2010-04-13, 00:32:05,VALID,1004.28,VALID,0,VALID,82.1707,VALID,0,VALID,26.6635,VALID,11,VALID,1.30547,
2010-04-13, 00:33:05,VALID,1004.23,VALID,0,VALID,82.0562,VALID,0,VALID,26.5855,VALID,24,VALID,1.97344,
2010-04-13, 00:34:05,VALID,1004.21,VALID,0,VALID,82.0181,VALID,0,VALID,26.605,VALID,35,VALID,1.37266,
2010-04-13, 00:35:05,VALID,1004.21,VALID,0,VALID,82.3461,VALID,0,VALID,26.5855,VALID,29,VALID,1.90742,
2010-04-13, 00:36:05,VALID,1004.17,VALID,0,VALID,82.6055,VALID,0,VALID,26.5466,VALID,27,VALID,1.3957,
2010-04-13, 00:37:05,VALID,1004.17,VALID,0,VALID,82.3766,VALID,0,VALID,26.5251,VALID,28,VALID,2.49258,
2010-04-13, 00:38:05,VALID,1004.2,VALID,0,VALID,82.4072,VALID,0,VALID,26.5446,VALID,32,VALID,1.19062,
2010-04-13, 00:39:05,VALID,1004.21,VALID,0,VALID,82.4453,VALID,0,VALID,26.5466,VALID,12,VALID,1.83086,
2010-04-13, 00:40:05,VALID,1004.22,VALID,0,VALID,82.7047,VALID,0,VALID,26.4881,VALID,8,VALID,1.31484,
2010-04-13, 00:41:05,VALID,1004.24,VALID,0,VALID,82.514,VALID,0,VALID,26.5076,VALID,27,VALID,1.93359,
2010-04-13, 00:42:05,VALID,1004.23,VALID,0,VALID,82.4453,VALID,0,VALID,26.5076,VALID,14,VALID,1.35703,
2010-04-13, 00:43:05,VALID,1004.25,VALID,0,VALID,82.4529,VALID,0,VALID,26.5271,VALID,44,VALID,0.654688,
2010-04-13, 00:44:05,VALID,1004.28,VALID,0,VALID,82.6665,VALID,0,VALID,26.4687,VALID,10,VALID,0.827344,
2010-04-13, 00:45:05,VALID,1004.3,VALID,0,VALID,82.8878,VALID,0,VALID,26.4687,VALID,360,VALID,1.37383,
2010-04-13, 00:46:05,VALID,1004.29,VALID,0,VALID,83.0404,VALID,0,VALID,26.3887,VALID,11,VALID,1.07617,
2010-04-13, 00:47:05,VALID,1004.34,VALID,0,VALID,83.0404,VALID,0,VALID,26.4102,VALID,15,VALID,1.81758,
2010-04-13, 00:48:05,VALID,1004.35,VALID,0,VALID,83.582,VALID,0,VALID,26.3693,VALID,20,VALID,0.854688,
2010-04-13, 00:49:05,VALID,1004.36,VALID,0,VALID,83.6202,VALID,0,VALID,26.2739,VALID,41,VALID,1.79492,
2010-04-13, 00:50:05,VALID,1004.36,VALID,0,VALID,83.7651,VALID,0.100563,VALID,26.2913,VALID,1,VALID,1.83281,
2010-04-13, 00:51:05,VALID,1004.33,VALID,0,VALID,83.2463,VALID,0,VALID,26.3713,VALID,9,VALID,1.20234,
2010-04-13, 00:52:05,VALID,1004.33,VALID,0,VALID,83.0175,VALID,0,VALID,26.3907,VALID,8,VALID,1.50156,
2010-04-13, 00:53:05,VALID,1004.35,VALID,0,VALID,82.9336,VALID,0,VALID,26.4277,VALID,15,VALID,1.41484,
2010-04-13, 00:54:05,VALID,1004.34,VALID,0,VALID,82.6208,VALID,0,VALID,26.4492,VALID,23,VALID,1.89492,
2010-04-13, 00:55:05,VALID,1004.33,VALID,0,VALID,82.5979,VALID,0,VALID,26.5076,VALID,23,VALID,1.36484,
2010-04-13, 00:56:05,VALID,1004.37,VALID,0,VALID,82.4987,VALID,0,VALID,26.4861,VALID,52,VALID,1.50508,
2010-04-13, 00:57:05,VALID,1004.33,VALID,0,VALID,82.6589,VALID,0.100563,VALID,26.4667,VALID,22,VALID,1.19258,
2010-04-13, 00:58:05,VALID,1004.29,VALID,0,VALID,82.4606,VALID,0.100563,VALID,26.4667,VALID,356,VALID,1.10977,
2010-04-13, 00:59:05,VALID,1004.31,VALID,0,VALID,82.514,VALID,0.100563,VALID,26.5076,VALID,26,VALID,1.59063,
2010-04-13, 01:00:05,VALID,1004.31,VALID,0,VALID,82.2775,VALID,0.100563,VALID,26.5466,VALID,13,VALID,1.64766,
2010-04-13, 01:01:05,VALID,1004.3,VALID,0,VALID,82.0105,VALID,0,VALID,26.5855,VALID,53,VALID,0.978125,
2010-04-13, 01:02:05,VALID,1004.32,VALID,0,VALID,82.0715,VALID,0,VALID,26.5835,VALID,25,VALID,1.21875,
2010-04-13, 01:03:05,VALID,1004.29,VALID,0,VALID,81.9037,VALID,0.100563,VALID,26.5835,VALID,1,VALID,1.94414,
2010-04-13, 01:04:05,VALID,1004.27,VALID,0,VALID,81.8197,VALID,0,VALID,26.6245,VALID,23,VALID,1.42109,
2010-04-13, 01:05:05,VALID,1004.26,VALID,0,VALID,81.7587,VALID,0.100563,VALID,26.6245,VALID,24,VALID,1.10664,
2010-04-13, 01:06:05,VALID,1004.24,VALID,0,VALID,81.7206,VALID,0,VALID,26.5835,VALID,18,VALID,1.05859,
2010-04-13, 01:07:05,VALID,1004.25,VALID,0,VALID,81.9037,VALID,0,VALID,26.605,VALID,39,VALID,1.29336,
2010-04-13, 01:08:05,VALID,1004.23,VALID,0,VALID,81.8731,VALID,0,VALID,26.5641,VALID,13,VALID,1.64414,
2010-04-13, 01:09:05,VALID,1004.24,VALID,0,VALID,82.2393,VALID,0,VALID,26.5661,VALID,10,VALID,1.06875,
2010-04-13, 01:10:05,VALID,1004.25,VALID,0,VALID,82.1325,VALID,0,VALID,26.5271,VALID,20,VALID,1.08281,
2010-04-13, 01:11:05,VALID,1004.25,VALID,0,VALID,82.1249,VALID,0,VALID,26.5271,VALID,33,VALID,1.32891,
2010-04-13, 01:12:05,VALID,1004.26,VALID,0,VALID,82.3538,VALID,0,VALID,26.5056,VALID,9,VALID,1.21563,
2010-04-13, 01:13:05,VALID,1004.24,VALID,0,VALID,82.1783,VALID,0,VALID,26.4667,VALID,14,VALID,2.61523,
2010-04-13, 01:14:05,VALID,1004.27,VALID,0,VALID,82.2164,VALID,0,VALID,26.5661,VALID,21,VALID,0.991797,
2010-04-13, 01:15:05,VALID,1004.21,VALID,0,VALID,82.1096,VALID,0,VALID,26.5251,VALID,11,VALID,1.16797,
2010-04-13, 01:16:05,VALID,1004.24,VALID,0,VALID,82.0486,VALID,0,VALID,26.5466,VALID,4,VALID,1.59805,
2010-04-13, 01:17:05,VALID,1004.23,VALID,0,VALID,81.9723,VALID,0,VALID,26.5661,VALID,28,VALID,1.6043,
2010-04-13, 01:18:05,VALID,1004.23,VALID,0,VALID,82.3385,VALID,0,VALID,26.5466,VALID,21,VALID,1.10078,
2010-04-13, 01:19:05,VALID,1004.2,VALID,0,VALID,82.4301,VALID,0,VALID,26.4881,VALID,21,VALID,0.855469,
2010-04-13, 01:20:05,VALID,1004.22,VALID,0,VALID,82.4148,VALID,0.100563,VALID,26.4881,VALID,44,VALID,0.841406,
2010-04-13, 01:21:05,VALID,1004.21,VALID,0,VALID,82.5369,VALID,0,VALID,26.4472,VALID,25,VALID,1.12148,
2010-04-13, 01:22:05,VALID,1004.14,VALID,0,VALID,82.3919,VALID,0.100563,VALID,26.4277,VALID,2,VALID,1.99805,
2010-04-13, 01:23:05,VALID,1004.1,VALID,0,VALID,82.3843,VALID,0,VALID,26.4277,VALID,48,VALID,1.28086,
2010-04-13, 01:24:05,VALID,1004.08,VALID,0,VALID,82.2851,VALID,0.100563,VALID,26.4881,VALID,17,VALID,1.65391,
2010-04-13, 01:25:05,VALID,1004.04,VALID,0,VALID,82.1402,VALID,0,VALID,26.5251,VALID,20,VALID,1.45313,
2010-04-13, 01:26:05,VALID,1004.03,VALID,0,VALID,82.0181,VALID,0.100563,VALID,26.5446,VALID,32,VALID,0.660156,
2010-04-13, 01:27:05,VALID,1004.01,VALID,0,VALID,81.8808,VALID,0,VALID,26.5446,VALID,9,VALID,1.31719,
2010-04-13, 01:28:05,VALID,1003.99,VALID,0,VALID,82.2012,VALID,0.100563,VALID,26.5466,VALID,20,VALID,1.01914,
2010-04-13, 01:29:05,VALID,1003.94,VALID,0,VALID,82.2775,VALID,0.100563,VALID,26.4861,VALID,24,VALID,1.66953,
2010-04-13, 01:30:05,VALID,1003.94,VALID,0,VALID,82.3614,VALID,0,VALID,26.5271,VALID,21,VALID,0.973828,
2010-04-13, 01:31:05,VALID,1003.93,VALID,0,VALID,82.3614,VALID,0,VALID,26.4881,VALID,21,VALID,1.51953,
2010-04-13, 01:32:05,VALID,1003.91,VALID,0,VALID,82.4377,VALID,0,VALID,26.4901,VALID,41,VALID,1.34336,
2010-04-13, 01:33:05,VALID,1003.93,VALID,0,VALID,82.6131,VALID,0,VALID,26.4687,VALID,22,VALID,0.849219,
2010-04-13, 01:34:05,VALID,1003.91,VALID,0,VALID,82.6818,VALID,0,VALID,26.4297,VALID,22,VALID,1.00625,
2010-04-13, 01:35:05,VALID,1003.95,VALID,0,VALID,82.7428,VALID,0,VALID,26.4297,VALID,41,VALID,0.378906,
2010-04-13, 01:36:05,VALID,1003.93,VALID,0,VALID,82.7276,VALID,0,VALID,26.4512,VALID,33,VALID,0.883984,
2010-04-13, 01:37:05,VALID,1003.94,VALID,0,VALID,82.6971,VALID,0,VALID,26.4707,VALID,21,VALID,1.22891,
2010-04-13, 01:38:05,VALID,1003.96,VALID,0,VALID,82.7581,VALID,0,VALID,26.4102,VALID,33,VALID,1.42617,
2010-04-13, 01:39:05,VALID,1003.96,VALID,0,VALID,82.7123,VALID,0,VALID,26.4297,VALID,22,VALID,0.979297,
2010-04-13, 01:40:05,VALID,1003.98,VALID,0,VALID,82.5674,VALID,0,VALID,26.4901,VALID,16,VALID,1.91836,
2010-04-13, 01:41:05,VALID,1003.98,VALID,0,VALID,82.4148,VALID,0,VALID,26.4881,VALID,13,VALID,1.22109,
2010-04-13, 01:42:05,VALID,1004,VALID,0,VALID,82.4148,VALID,0,VALID,26.5291,VALID,16,VALID,1.35273,
2010-04-13, 01:43:05,VALID,1004.02,VALID,0,VALID,82.369,VALID,0,VALID,26.5271,VALID,35,VALID,1.00625,
2010-04-13, 01:44:05,VALID,1003.98,VALID,0,VALID,82.1783,VALID,0,VALID,26.5271,VALID,30,VALID,1.56172,
2010-04-13, 01:45:05,VALID,1004.04,VALID,0,VALID,82.4072,VALID,0,VALID,26.5271,VALID,19,VALID,0.694531,
2010-04-13, 01:46:05,VALID,1004.02,VALID,0,VALID,82.6131,VALID,0,VALID,26.4901,VALID,35,VALID,0.635547,
2010-04-13, 01:47:05,VALID,1004,VALID,0,VALID,82.7276,VALID,0,VALID,26.4512,VALID,13,VALID,0.9,
2010-04-13, 01:48:05,VALID,1004.03,VALID,0,VALID,82.7047,VALID,0,VALID,26.4122,VALID,22,VALID,0.85625,
2010-04-13, 01:49:05,VALID,1004.03,VALID,0,VALID,83.0022,VALID,0,VALID,26.3927,VALID,23,VALID,0.977734,
2010-04-13, 01:50:05,VALID,1004.02,VALID,0,VALID,83.3608,VALID,0,VALID,26.3538,VALID,13,VALID,0.915625,
2010-04-13, 01:51:05,VALID,1004.03,VALID,0,VALID,83.5286,VALID,0,VALID,26.2759,VALID,8,VALID,0.889063,
2010-04-13, 01:52:05,VALID,1004.03,VALID,0,VALID,83.5057,VALID,0,VALID,26.2544,VALID,31,VALID,1.1418,
2010-04-13, 01:53:05,VALID,1004.05,VALID,0,VALID,83.5668,VALID,0,VALID,26.2953,VALID,25,VALID,0.917188,
2010-04-13, 01:54:05,VALID,1004.05,VALID,0,VALID,83.6202,VALID,0,VALID,26.2953,VALID,19,VALID,0.847266,
2010-04-13, 01:55:05,VALID,1004.08,VALID,0,VALID,83.6736,VALID,0,VALID,26.2564,VALID,13,VALID,1.10859,
2010-04-13, 01:56:05,VALID,1004.1,VALID,0,VALID,83.9863,VALID,0,VALID,26.1959,VALID,25,VALID,0.676172,
2010-04-13, 01:57:05,VALID,1004.09,VALID,0,VALID,84.0169,VALID,0,VALID,26.1765,VALID,26,VALID,0.591016,
2010-04-13, 01:58:05,VALID,1004.11,VALID,0,VALID,84.2152,VALID,0,VALID,26.159,VALID,34,VALID,0.424609,
2010-04-13, 01:59:05,VALID,1004.1,VALID,0,VALID,84.3907,VALID,0,VALID,26.1395,VALID,32,VALID,0.180859,
2010-04-13, 02:00:05,VALID,1004.08,VALID,0,VALID,84.5661,VALID,0,VALID,26.0791,VALID,33,VALID,0.454297,
2010-04-13, 02:01:05,VALID,1004.08,VALID,0,VALID,84.6272,VALID,0,VALID,26.0791,VALID,33,VALID,0.578516,
2010-04-13, 02:02:05,VALID,1004.12,VALID,0,VALID,84.6806,VALID,0,VALID,26.0791,VALID,33,VALID,0.30625,
2010-04-13, 02:03:05,VALID,1004.11,VALID,0,VALID,84.8484,VALID,0,VALID,26.0576,VALID,58,VALID,0.417969,
2010-04-13, 02:04:05,VALID,1004.11,VALID,0,VALID,85.001,VALID,0,VALID,26.0401,VALID,51,VALID,0.488672,
2010-04-13, 02:05:05,VALID,1004.11,VALID,0,VALID,85.1688,VALID,0,VALID,25.9817,VALID,51,VALID,0.11875,
2010-04-13, 02:06:05,VALID,1004.09,VALID,0,VALID,85.5274,VALID,0,VALID,25.9232,VALID,43,VALID,0.522266,
2010-04-13, 02:07:05,VALID,1004.11,VALID,0,VALID,85.8325,VALID,0,VALID,25.8434,VALID,36,VALID,0.557422,
2010-04-13, 02:08:05,VALID,1004.1,VALID,0,VALID,86.1758,VALID,0,VALID,25.785,VALID,25,VALID,0.3875,
2010-04-13, 02:09:05,VALID,1004.11,VALID,0,VALID,86.4962,VALID,0,VALID,25.7265,VALID,25,VALID,0.201172,
2010-04-13, 02:10:05,VALID,1004.12,VALID,0,VALID,86.6946,VALID,0.100563,VALID,25.6895,VALID,25,VALID,0.319922,
2010-04-13, 02:11:05,VALID,1004.13,VALID,0,VALID,87.015,VALID,0.100563,VALID,25.5902,VALID,25,VALID,0,
2010-04-13, 02:12:05,VALID,1004.15,VALID,0,VALID,87.2286,VALID,0,VALID,25.5318,VALID,25,VALID,0.194531,
2010-04-13, 02:13:05,VALID,1004.16,VALID,0,VALID,87.5033,VALID,0.100563,VALID,25.4734,VALID,25,VALID,0.219141,
2010-04-13, 02:14:05,VALID,1004.16,VALID,0,VALID,87.8466,VALID,0,VALID,25.4169,VALID,25,VALID,0.0195313,
2010-04-13, 02:15:05,VALID,1004.2,VALID,0,VALID,88.1059,VALID,0,VALID,25.337,VALID,25,VALID,0,
2010-04-13, 02:16:05,VALID,1004.17,VALID,0,VALID,88.4416,VALID,0,VALID,25.3604,VALID,25,VALID,0.292969,
2010-04-13, 02:17:05,VALID,1004.21,VALID,0,VALID,88.4874,VALID,0,VALID,25.339,VALID,25,VALID,0,
2010-04-13, 02:18:05,VALID,1004.19,VALID,0,VALID,88.495,VALID,0,VALID,25.3584,VALID,25,VALID,0,
2010-04-13, 02:19:05,VALID,1004.2,VALID,0,VALID,88.6018,VALID,0,VALID,25.339,VALID,25,VALID,0.246875,
2010-04-13, 02:20:05,VALID,1004.19,VALID,0,VALID,88.6323,VALID,0,VALID,25.3584,VALID,25,VALID,0.0046875,
2010-04-13, 02:21:05,VALID,1004.17,VALID,0,VALID,88.7925,VALID,0,VALID,25.3584,VALID,25,VALID,0.132813,
2010-04-13, 02:22:05,VALID,1004.19,VALID,0,VALID,88.8459,VALID,0,VALID,25.3195,VALID,25,VALID,0.320703,
2010-04-13, 02:23:05,VALID,1004.2,VALID,0,VALID,88.8765,VALID,0,VALID,25.2806,VALID,25,VALID,0.0160156,
2010-04-13, 02:24:05,VALID,1004.21,VALID,0,VALID,88.9222,VALID,0,VALID,25.2221,VALID,25,VALID,0.226172,
2010-04-13, 02:25:05,VALID,1004.21,VALID,0,VALID,89.0595,VALID,0,VALID,25.2027,VALID,25,VALID,0,
2010-04-13, 02:26:05,VALID,1004.24,VALID,0,VALID,89.296,VALID,0,VALID,25.1442,VALID,25,VALID,0,
2010-04-13, 02:27:05,VALID,1004.27,VALID,0,VALID,89.5097,VALID,0,VALID,25.1461,VALID,25,VALID,0,
2010-04-13, 02:28:05,VALID,1004.27,VALID,0,VALID,89.9216,VALID,0,VALID,25.0858,VALID,25,VALID,0.184766,
2010-04-13, 02:29:05,VALID,1004.32,VALID,0,VALID,90.8447,VALID,0,VALID,25.0469,VALID,25,VALID,0.147656,
2010-04-13, 02:30:05,VALID,1004.34,VALID,0,VALID,91.3635,VALID,0,VALID,25.0274,VALID,25,VALID,0,
2010-04-13, 02:31:05,VALID,1004.33,VALID,0,VALID,91.867,VALID,0,VALID,24.9885,VALID,25,VALID,0,
2010-04-13, 02:32:05,VALID,1004.36,VALID,0,VALID,92.134,VALID,0,VALID,24.9709,VALID,25,VALID,0,
2010-04-13, 02:33:05,VALID,1004.33,VALID,0,VALID,92.2789,VALID,0,VALID,24.9106,VALID,25,VALID,0,
2010-04-13, 02:34:05,VALID,1004.31,VALID,0,VALID,92.4086,VALID,0,VALID,24.8522,VALID,25,VALID,0.232812,
2010-04-13, 02:35:05,VALID,1004.33,VALID,0,VALID,92.5688,VALID,0,VALID,24.8327,VALID,25,VALID,0.366406,
2010-04-13, 02:36:05,VALID,1004.29,VALID,0,VALID,92.7596,VALID,0,VALID,24.7937,VALID,25,VALID,0.361328,
2010-04-13, 02:37:05,VALID,1004.29,VALID,0,VALID,92.9808,VALID,0,VALID,24.7761,VALID,25,VALID,0.401953,
2010-04-13, 02:38:05,VALID,1004.27,VALID,0,VALID,93.1715,VALID,0,VALID,24.7353,VALID,25,VALID,0.436719,
2010-04-13, 02:39:05,VALID,1004.25,VALID,0,VALID,93.3165,VALID,0,VALID,24.7177,VALID,25,VALID,0.372266,
2010-04-13, 02:40:05,VALID,1004.26,VALID,0,VALID,93.4538,VALID,0,VALID,24.6788,VALID,25,VALID,0.346484,
2010-04-13, 02:41:05,VALID,1004.28,VALID,0,VALID,93.6216,VALID,0,VALID,24.6593,VALID,25,VALID,0.242188,
2010-04-13, 02:42:05,VALID,1004.24,VALID,0,VALID,93.7361,VALID,0,VALID,24.6398,VALID,25,VALID,0.144141,
2010-04-13, 02:43:05,VALID,1004.25,VALID,0,VALID,93.8734,VALID,0,VALID,24.6185,VALID,25,VALID,0.324609,
2010-04-13, 02:44:05,VALID,1004.26,VALID,0,VALID,93.9573,VALID,0,VALID,24.6204,VALID,25,VALID,0.161328,
2010-04-13, 02:45:05,VALID,1004.22,VALID,0,VALID,94.0259,VALID,0,VALID,24.5796,VALID,25,VALID,0.266797,
2010-04-13, 02:46:05,VALID,1004.23,VALID,0,VALID,94.0794,VALID,0,VALID,24.5601,VALID,25,VALID,0.217187,
2010-04-13, 02:47:05,VALID,1004.2,VALID,0,VALID,94.1328,VALID,0,VALID,24.5406,VALID,25,VALID,0.407422,
2010-04-13, 02:48:05,VALID,1004.19,VALID,0,VALID,94.2014,VALID,0,VALID,24.523,VALID,25,VALID,0.263672,
2010-04-13, 02:49:05,VALID,1004.19,VALID,0,VALID,94.2472,VALID,0,VALID,24.4822,VALID,25,VALID,0.335156,
2010-04-13, 02:50:05,VALID,1004.21,VALID,0,VALID,94.2853,VALID,0,VALID,24.4433,VALID,25,VALID,0.413672,
2010-04-13, 02:51:05,VALID,1004.22,VALID,0,VALID,94.3464,VALID,0,VALID,24.4043,VALID,25,VALID,0.391406,
2010-04-13, 02:52:05,VALID,1004.22,VALID,0,VALID,94.4608,VALID,0.100563,VALID,24.4043,VALID,25,VALID,0.358203,
2010-04-13, 02:53:05,VALID,1004.24,VALID,0,VALID,94.5523,VALID,0,VALID,24.3849,VALID,25,VALID,0.373047,
2010-04-13, 02:54:05,VALID,1004.25,VALID,0,VALID,94.6515,VALID,0,VALID,24.3636,VALID,25,VALID,0.240234,
2010-04-13, 02:55:05,VALID,1004.29,VALID,0,VALID,94.7278,VALID,0,VALID,24.3654,VALID,25,VALID,0.3125,
2010-04-13, 02:56:05,VALID,1004.34,VALID,0,VALID,94.8194,VALID,0,VALID,24.3246,VALID,25,VALID,0.450781,
2010-04-13, 02:57:05,VALID,1004.37,VALID,0,VALID,94.9185,VALID,0,VALID,24.3441,VALID,25,VALID,0.228125,
2010-04-13, 02:58:05,VALID,1004.39,VALID,0,VALID,94.9643,VALID,0,VALID,24.3265,VALID,25,VALID,0.126563,
2010-04-13, 02:59:04,VALID,1004.42,VALID,0,VALID,95.0177,VALID,0,VALID,24.3246,VALID,25,VALID,0.484766,
2010-04-13, 03:00:04,VALID,1004.44,VALID,0,VALID,95.1016,VALID,0,VALID,24.3246,VALID,25,VALID,0.378125,
2010-04-13, 03:01:04,VALID,1004.45,VALID,0,VALID,95.155,VALID,0,VALID,24.3441,VALID,28,VALID,0.474609,
2010-04-13, 03:02:04,VALID,1004.46,VALID,0,VALID,95.2161,VALID,0,VALID,24.3441,VALID,30,VALID,0.335547,
2010-04-13, 03:03:04,VALID,1004.45,VALID,0,VALID,95.2695,VALID,0,VALID,24.3654,VALID,30,VALID,0.304297,
2010-04-13, 03:04:04,VALID,1004.44,VALID,0,VALID,95.3152,VALID,0,VALID,24.3654,VALID,37,VALID,0.373047,
2010-04-13, 03:05:04,VALID,1004.45,VALID,0,VALID,95.3457,VALID,0,VALID,24.3636,VALID,50,VALID,0.257813,
2010-04-13, 03:06:04,VALID,1004.42,VALID,0,VALID,95.3686,VALID,0,VALID,24.3246,VALID,50,VALID,0.234766,
2010-04-13, 03:07:04,VALID,1004.43,VALID,0,VALID,95.3839,VALID,0,VALID,24.3246,VALID,50,VALID,0.214062,
2010-04-13, 03:08:04,VALID,1004.42,VALID,0,VALID,95.3915,VALID,0,VALID,24.3441,VALID,50,VALID,0.262891,
2010-04-13, 03:09:04,VALID,1004.41,VALID,0,VALID,95.4297,VALID,0,VALID,24.3459,VALID,50,VALID,0.207422,
2010-04-13, 03:10:04,VALID,1004.38,VALID,0,VALID,95.4526,VALID,0,VALID,24.3654,VALID,50,VALID,0.439453,
2010-04-13, 03:11:04,VALID,1004.36,VALID,0,VALID,95.4602,VALID,0,VALID,24.4043,VALID,17,VALID,0.94375,
2010-04-13, 03:12:04,VALID,1004.32,VALID,0,VALID,95.5288,VALID,0,VALID,24.5193,VALID,21,VALID,0.714453,
2010-04-13, 03:13:04,VALID,1004.3,VALID,0,VALID,95.5822,VALID,0,VALID,24.599,VALID,21,VALID,0.627344,
2010-04-13, 03:14:04,VALID,1004.29,VALID,0,VALID,95.567,VALID,0,VALID,24.6556,VALID,27,VALID,0.773047,
2010-04-13, 03:15:04,VALID,1004.24,VALID,0,VALID,95.4983,VALID,0,VALID,24.7937,VALID,21,VALID,0.979688,
2010-04-13, 03:16:04,VALID,1004.2,VALID,0,VALID,95.3381,VALID,0,VALID,24.8892,VALID,52,VALID,0.613281,
2010-04-13, 03:17:04,VALID,1004.19,VALID,0,VALID,95.0253,VALID,0,VALID,24.9866,VALID,23,VALID,0.369922,
2010-04-13, 03:18:04,VALID,1004.13,VALID,0,VALID,94.5066,VALID,0,VALID,25.0644,VALID,19,VALID,0.601953,
2010-04-13, 03:19:04,VALID,1004.09,VALID,0,VALID,93.8276,VALID,0,VALID,25.1248,VALID,31,VALID,0.712891,
2010-04-13, 03:20:04,VALID,1004.08,VALID,0,VALID,93.2402,VALID,0.100563,VALID,25.1813,VALID,29,VALID,0.548828,
2010-04-13, 03:21:04,VALID,1004.06,VALID,0,VALID,92.7062,VALID,0,VALID,25.2397,VALID,29,VALID,0.498437,
2010-04-13, 03:22:04,VALID,1004.05,VALID,0,VALID,92.2484,VALID,0,VALID,25.2592,VALID,14,VALID,1.79336,
2010-04-13, 03:23:04,VALID,1004.05,VALID,0,VALID,91.0431,VALID,0,VALID,25.376,VALID,44,VALID,0.527344,
2010-04-13, 03:24:04,VALID,1004.07,VALID,0,VALID,90.0284,VALID,0,VALID,25.4344,VALID,12,VALID,1.12148,
2010-04-13, 03:25:04,VALID,1004.07,VALID,0,VALID,89.4639,VALID,0,VALID,25.4734,VALID,21,VALID,0.457422,
2010-04-13, 03:26:04,VALID,1004.13,VALID,0,VALID,89.1206,VALID,0,VALID,25.4928,VALID,29,VALID,1.12148,
2010-04-13, 03:27:04,VALID,1004.18,VALID,0,VALID,88.8002,VALID,0.100563,VALID,25.5532,VALID,26,VALID,0.251172,
2010-04-13, 03:28:04,VALID,1004.2,VALID,0,VALID,88.6857,VALID,0,VALID,25.5123,VALID,26,VALID,0.0945313,
2010-04-13, 03:29:04,VALID,1004.22,VALID,0,VALID,88.6857,VALID,0,VALID,25.4734,VALID,26,VALID,0.0105469,
2010-04-13, 03:30:04,VALID,1004.26,VALID,0,VALID,88.7468,VALID,0,VALID,25.4948,VALID,91,VALID,0.541406,
2010-04-13, 03:31:04,VALID,1004.25,VALID,0,VALID,88.6247,VALID,0,VALID,25.4948,VALID,84,VALID,0.998438,
2010-04-13, 03:32:04,VALID,1004.3,VALID,0,VALID,88.4111,VALID,0,VALID,25.5142,VALID,4,VALID,0.449609,
2010-04-13, 03:33:04,VALID,1004.31,VALID,0,VALID,88.1975,VALID,0,VALID,25.5532,VALID,78,VALID,0.212891,
2010-04-13, 03:34:04,VALID,1004.31,VALID,0,VALID,88.0907,VALID,0,VALID,25.5727,VALID,78,VALID,0,
2010-04-13, 03:35:04,VALID,1004.3,VALID,0,VALID,87.9991,VALID,0,VALID,25.5532,VALID,32,VALID,0.484766,
2010-04-13, 03:36:04,VALID,1004.32,VALID,0,VALID,87.9228,VALID,0,VALID,25.5513,VALID,22,VALID,0.0734375,
2010-04-13, 03:37:04,VALID,1004.29,VALID,0,VALID,87.9686,VALID,0,VALID,25.5727,VALID,22,VALID,0.142969,
2010-04-13, 03:38:04,VALID,1004.31,VALID,0,VALID,87.9915,VALID,0,VALID,25.5532,VALID,22,VALID,0.000390625,
2010-04-13, 03:39:04,VALID,1004.29,VALID,0,VALID,88.0907,VALID,0,VALID,25.5337,VALID,22,VALID,0.220703,
2010-04-13, 03:40:04,VALID,1004.3,VALID,0,VALID,88.0144,VALID,0,VALID,25.4928,VALID,355,VALID,0.420312,
2010-04-13, 03:41:04,VALID,1004.28,VALID,0,VALID,87.9762,VALID,0,VALID,25.5318,VALID,355,VALID,0.364844,
2010-04-13, 03:42:04,VALID,1004.29,VALID,0,VALID,87.961,VALID,0,VALID,25.5123,VALID,355,VALID,0.438281,
2010-04-13, 03:43:04,VALID,1004.27,VALID,0,VALID,88.0373,VALID,0.100563,VALID,25.5142,VALID,355,VALID,0.0617188,
2010-04-13, 03:44:04,VALID,1004.26,VALID,0,VALID,88.1441,VALID,0,VALID,25.4734,VALID,355,VALID,0.310937,
2010-04-13, 03:45:04,VALID,1004.3,VALID,0,VALID,88.1746,VALID,0,VALID,25.4558,VALID,355,VALID,0.474219,
2010-04-13, 03:46:04,VALID,1004.29,VALID,0,VALID,88.228,VALID,0,VALID,25.4753,VALID,354,VALID,0.334766,